DW8293 Weather Reports


Display with metric or nautical units.
time (UTC)temp
F
wind
direction
speed
MPH
gust
MPH
rain 1hr
in
rain 24hr
in
rain mn
in
humidity
%
barometer
mb
20260901020003 55 0 0.0 0.0 0.00 0.00 0.00 98 1002.6
20260901015426 55 0 0.0 0.0 0.00 0.00 0.00 98 1002.5
20260901014503 55 202 0.0 2.0 0.00 0.00 0.00 98 1002.7
20260901013627 55 202 0.0 2.0 0.00 0.00 0.00 98 1002.6
20260901012703 56 184 2.0 2.0 0.00 0.00 0.00 98 1002.5
20260901011803 55 157 1.0 2.0 0.00 0.01 0.00 99 1002.3
20260901010903 55 157 0.0 2.0 0.00 0.02 0.00 99 1002.3
20260901010003 55 0 0.0 0.0 0.00 0.04 0.00 99 1002.5
20260901005424 55 0 0.0 0.0 0.00 0.05 0.00 99 1002.4
20260901004503 55 0 0.0 0.0 0.00 0.06 0.00 99 1002.4
20260901003603 55 146 0.0 2.0 0.00 0.07 0.00 99 1002.6
20260901002705 55 151 1.0 2.0 0.00 0.07 0.00 99 1002.6
20260901001805 54 157 1.0 2.0 0.00 0.08 0.00 99 1002.3
20260901000924 54 156 2.0 2.0 0.00 0.09 0.00 99 1002.4
20260901000005 53 154 0.0 2.0 0.00 0.11 0.00 99 1002.4
20260831235403 54 202 2.0 2.0 0.00 0.11 0.00 99 1002.5
20260831234503 54 0 0.0 0.0 0.00 0.11 0.00 99 1002.3
20260831233626 54 0 0.0 0.0 0.00 0.11 0.00 98 1002.2
20260831232703 54 202 0.0 2.0 0.00 0.11 0.00 98 1002.0
20260831231803 55 202 1.0 2.0 0.00 0.11 0.00 98 1002.1
20260831230904 55 0 0.0 0.0 0.00 0.11 0.00 97 1002.1
20260831230003 55 202 0.0 2.0 0.00 0.11 0.00 96 1002.3
20260831225427 56 202 0.0 2.0 0.00 0.11 0.00 96 1002.2
20260831224524 56 202 1.0 4.0 0.00 0.11 0.00 96 1002.2
20260831223624 56 202 2.0 4.0 0.00 0.11 0.00 97 1002.1
20260831222703 56 170 2.0 2.0 0.00 0.11 0.00 97 1002.6
20260831221824 56 157 1.0 2.0 0.00 0.11 0.00 98 1002.5
20260831220903 55 0 0.0 0.0 0.00 0.11 0.00 98 1002.3
20260831220005 55 0 0.0 0.0 0.00 0.11 0.00 98 1002.3
20260831215403 54 0 0.0 0.0 0.00 0.11 0.11 98 1002.4
20260831214503 55 0 0.0 0.0 0.00 0.11 0.11 98 1002.2
20260831213624 55 157 0.0 2.0 0.00 0.11 0.11 98 1002.4
20260831212703 55 157 0.0 2.0 0.00 0.11 0.11 97 1002.2
20260831211803 55 157 2.0 2.0 0.00 0.11 0.11 97 1002.1
20260831210925 55 157 0.0 2.0 0.00 0.11 0.11 96 1001.9
20260831210003 56 154 0.0 2.0 0.00 0.11 0.11 96 1002.0
20260831205426 56 157 0.0 2.0 0.00 0.11 0.11 96 1002.0
20260831204505 56 157 0.0 2.0 0.00 0.11 0.11 95 1002.1
20260831203605 56 167 0.0 2.0 0.00 0.11 0.11 94 1002.0
20260831202724 57 180 0.0 2.0 0.00 0.11 0.11 94 1002.0
20260831201803 57 180 0.0 2.0 0.00 0.11 0.11 94 1002.1
20260831200905 57 172 0.0 2.0 0.00 0.11 0.11 94 1002.0
20260831200026 57 180 0.0 2.0 0.00 0.11 0.11 93 1001.9
20260831195403 58 180 0.0 2.0 0.00 0.11 0.11 92 1001.9
20260831194503 58 180 1.0 2.0 0.00 0.11 0.11 91 1001.9
20260831193604 58 180 0.0 2.0 0.00 0.11 0.11 92 1001.9
20260831192704 58 180 1.0 2.0 0.00 0.11 0.11 91 1001.9
20260831191803 58 160 2.0 2.0 0.00 0.11 0.11 90 1002.2
20260831190905 58 145 0.0 2.0 0.00 0.11 0.11 90 1002.0
20260831190003 58 112 0.0 2.0 0.00 0.11 0.11 89 1002.2
20260831185403 59 119 1.0 2.0 0.00 0.11 0.11 88 1002.1
20260831184503 59 148 0.0 2.0 0.00 0.11 0.11 88 1002.1
20260831183605 60 166 0.0 2.0 0.00 0.11 0.11 86 1002.0
20260831182703 60 179 1.0 2.0 0.00 0.11 0.11 85 1002.1
20260831181803 61 199 2.0 4.0 0.00 0.11 0.11 84 1001.9
20260831180903 61 194 2.0 4.0 0.00 0.11 0.11 83 1001.6
20260831180003 61 191 2.0 6.0 0.00 0.11 0.11 82 1001.6
20260831175403 61 185 3.0 4.0 0.00 0.11 0.11 82 1001.7
20260831174503 62 155 2.0 6.0 0.00 0.11 0.11 81 1001.8
20260831173603 62 211 2.0 6.0 0.00 0.11 0.11 80 1001.7
20260831172703 62 215 2.0 6.0 0.00 0.11 0.11 79 1001.3
20260831171803 63 228 3.0 8.0 0.00 0.11 0.11 78 1001.5
20260831170904 63 244 6.0 11.0 0.00 0.11 0.11 77 1001.2
20260831170003 64 247 5.0 9.0 0.00 0.11 0.11 76 1001.3
20260831165403 64 217 4.0 11.0 0.00 0.11 0.11 75 1001.3
20260831164505 64 189 5.0 11.0 0.00 0.11 0.11 75 1001.3
20260831163624 65 172 4.0 11.0 0.00 0.11 0.11 73 1001.4
20260831162705 65 206 8.0 11.0 0.00 0.11 0.11 73 1001.2
20260831161803 65 191 7.0 11.0 0.00 0.11 0.11 73 1001.3
20260831160903 65 184 8.0 13.0 0.00 0.11 0.11 73 1001.1
20260831160003 66 234 6.0 11.0 0.00 0.11 0.11 72 1001.4
20260831155403 66 238 7.0 11.0 0.00 0.11 0.11 73 1001.1
20260831154505 67 225 8.0 11.0 0.00 0.11 0.11 71 1001.0
20260831153603 67 244 5.0 11.0 0.00 0.11 0.11 72 1001.0
20260831152703 66 225 6.0 11.0 0.00 0.11 0.11 73 1001.0
20260831151803 66 236 5.0 11.0 0.00 0.11 0.11 74 1000.8
20260831150924 66 214 5.0 9.0 0.00 0.11 0.11 74 1000.7
20260831150024 67 215 4.0 11.0 0.00 0.11 0.11 73 1000.9
20260831145403 67 218 5.0 13.0 0.00 0.11 0.11 74 1000.9
20260831144524 67 209 6.0 13.0 0.00 0.11 0.11 75 1001.0
20260831143624 67 227 6.0 15.0 0.00 0.11 0.11 76 1000.8
20260831142703 67 199 6.0 13.0 0.00 0.11 0.11 76 1000.8
20260831141803 67 213 5.0 9.0 0.00 0.11 0.11 76 1000.9
20260831140903 66 196 4.0 9.0 0.00 0.11 0.11 76 1000.9
20260831140024 66 190 4.0 9.0 0.00 0.11 0.11 76 1000.9
20260831135424 66 195 5.0 9.0 0.00 0.11 0.11 77 1001.0
20260831134503 66 210 5.0 9.0 0.00 0.11 0.11 77 1000.9
20260831133603 66 216 4.0 7.0 0.00 0.11 0.11 76 1001.0
20260831132705 66 226 4.0 8.0 0.00 0.11 0.11 75 1000.8
20260831131803 66 214 4.0 8.0 0.00 0.11 0.11 74 1001.2
20260831130905 66 226 4.0 9.0 0.00 0.11 0.11 74 1000.9
20260831130004 66 227 4.0 11.0 0.00 0.11 0.11 74 1000.8
20260831125405 66 242 4.0 7.0 0.00 0.11 0.11 73 1000.9
20260831124503 66 260 2.0 6.0 0.00 0.11 0.11 72 1000.8
20260831123624 66 247 4.0 8.0 0.00 0.11 0.11 71 1000.7
20260831122703 66 274 3.0 9.0 0.00 0.11 0.11 71 1000.6
20260831121805 66 260 7.0 11.0 0.00 0.11 0.11 70 1000.7
20260831120903 66 256 4.0 11.0 0.00 0.11 0.11 70 1000.4
20260831120003 66 253 6.0 13.0 0.00 0.11 0.11 70 1000.6
20260831115403 66 256 8.0 13.0 0.00 0.11 0.11 69 1000.4
20260831114503 66 235 3.0 11.0 0.00 0.11 0.11 72 1000.6
20260831113603 66 256 6.0 11.0 0.00 0.11 0.11 75 1000.6
20260831112703 65 252 2.0 8.0 0.00 0.11 0.11 76 1000.4
20260831111803 64 254 5.0 9.0 0.00 0.11 0.11 79 1000.3
20260831110924 65 261 2.0 8.0 0.00 0.11 0.11 80 1000.7
20260831110003 65 259 2.0 11.0 0.00 0.11 0.11 81 1000.6
20260831105403 65 245 2.0 6.0 0.00 0.11 0.11 82 1000.4
20260831104503 64 239 3.0 8.0 0.00 0.11 0.11 82 1000.8
20260831103603 64 236 4.0 8.0 0.00 0.11 0.11 83 1000.8
20260831102703 64 239 2.0 9.0 0.00 0.11 0.11 85 1000.4
20260831101805 63 239 4.0 11.0 0.00 0.11 0.11 87 1000.8
20260831100903 62 230 7.0 11.0 0.00 0.11 0.11 88 1000.6
20260831100005 62 244 4.0 8.0 0.00 0.11 0.11 88 1000.6
20260831095405 62 224 3.0 11.0 0.00 0.11 0.11 88 1000.4
20260831094505 63 249 4.0 8.0 0.00 0.11 0.11 87 1000.6
20260831093603 63 251 2.0 6.0 0.00 0.11 0.11 86 1000.1
20260831092703 63 242 4.0 9.0 0.00 0.11 0.11 86 1000.3
20260831091803 63 256 4.0 9.0 0.00 0.11 0.11 85 1000.2
20260831090903 63 245 2.0 11.0 0.00 0.11 0.11 84 1000.1
20260831090005 63 256 5.0 11.0 0.00 0.11 0.11 84 1000.2
20260831085405 63 257 8.0 11.0 0.00 0.11 0.11 84 1000.2
20260831084524 62 265 6.0 9.0 0.00 0.11 0.11 85 1000.1
20260831083603 62 256 4.0 9.0 0.00 0.11 0.11 88 1000.1
20260831082703 62 253 5.0 7.0 0.00 0.11 0.11 90 1000.2
20260831081803 62 253 4.0 11.0 0.00 0.11 0.11 90 1000.0
20260831080903 62 253 6.0 11.0 0.00 0.11 0.11 90 1000.0
20260831080005 62 233 4.0 9.0 0.00 0.11 0.11 90 1000.0
20260831075424 61 234 7.0 11.0 0.00 0.11 0.11 90 1000.0
20260831074503 62 228 5.0 13.0 0.00 0.11 0.11 92 1000.2
20260831073603 63 251 4.0 11.0 0.00 0.11 0.11 90 999.8
20260831072703 62 223 6.0 9.0 0.00 0.11 0.11 91 999.8
20260831071803 62 235 4.0 11.0 0.00 0.11 0.11 93 999.7
20260831070903 62 231 4.0 13.0 0.00 0.11 0.11 93 999.6
20260831070005 61 228 5.0 9.0 0.00 0.11 0.11 96 999.5
20260831065403 60 215 3.0 7.0 0.00 0.11 0.11 99 999.5
20260831064505 60 190 3.0 7.0 0.00 0.11 0.11 99 999.2
20260831063624 60 163 2.0 4.0 0.00 0.11 0.11 99 999.4
20260831062724 60 112 1.0 2.0 0.00 0.11 0.11 99 999.3
20260831061824 60 112 0.0 4.0 0.00 0.11 0.11 99 999.4
20260831060904 59 112 2.0 4.0 0.00 0.11 0.11 99 999.2
20260831060003 59 112 0.0 2.0 0.00 0.11 0.11 99 999.3
20260831055403 59 102 2.0 2.0 0.00 0.11 0.11 99 999.1
20260831054503 59 90 1.0 2.0 0.00 0.11 0.11 99 999.1
20260831053603 59 0 0.0 0.0 0.00 0.11 0.11 99 999.1
20260831052703 58 0 0.0 0.0 0.00 0.11 0.11 99 999.1
20260831051803 58 0 0.0 0.0 0.00 0.11 0.11 99 999.0
20260831050924 58 0 0.0 0.0 0.00 0.11 0.11 99 999.0
20260831050003 58 0 0.0 0.0 0.00 0.11 0.11 99 999.2
20260831045403 58 0 0.0 0.0 0.00 0.11 0.11 99 999.1
20260831044503 58 0 0.0 0.0 0.00 0.11 0.11 99 998.9
20260831043605 58 0 0.0 0.0 0.00 0.11 0.11 99 999.1
20260831042703 57 0 0.0 0.0 0.00 0.11 0.11 99 998.9
20260831041805 58 90 0.0 2.0 0.00 0.11 0.11 99 999.0
20260831040903 58 90 0.0 2.0 0.00 0.11 0.11 99 998.9
20260831040024 58 0 0.0 0.0 0.00 0.11 0.11 99 998.8
20260831035406 58 0 0.0 0.0 0.00 0.11 0.11 99 998.8
20260831034503 58 0 0.0 0.0 0.00 0.11 0.11 99 998.7
20260831033603 58 0 0.0 0.0 0.00 0.11 0.11 99 998.8
20260831032725 58 0 0.0 0.0 0.00 0.11 0.11 99 998.7
20260831031824 58 0 0.0 0.0 0.00 0.11 0.11 99 998.5
20260831030905 58 0 0.0 0.0 0.00 0.11 0.11 99 998.6
20260831030003 58 0 0.0 0.0 0.00 0.11 0.11 99 998.4
20260831025403 58 0 0.0 0.0 0.00 0.11 0.11 99 998.4
20260831024503 58 0 0.0 0.0 0.00 0.11 0.11 99 998.6
20260831023603 57 0 0.0 0.0 0.00 0.11 0.11 99 998.6
20260831022703 58 0 0.0 0.0 0.00 0.11 0.11 99 998.6
20260831021803 58 0 0.0 0.0 0.01 0.11 0.11 99 998.8
20260831020903 58 0 0.0 0.0 0.02 0.11 0.11 99 998.7